JBU3914 KFLL-KMSY

Flight info

Callsign JBU3914
Flight time N/A
Altitude 34000
Route BNICE2 DOLIE Y280 REDFN Q105 HRV
Aircraft A320/M-SDE3FGHIRWY/LB1

Departure

Time 2026-05-08 01:24
Airport Fort Lauderdale Hollywood International Airport (KFLL)

Arrival

Time N/A
Airport Louis Armstrong New Orleans International Airport (KMSY)
Time Latitude Longitude Altitude Speed Heading
2026-05-07 23:49 26.07151 -80.14648 17 ft 0 kts 179°
2026-05-08 01:09 26.07154 -80.14648 6 ft 3 kts 178°
2026-05-08 01:09 26.07181 -80.14650 17 ft 4 kts 173°
2026-05-08 01:09 26.07200 -80.14652 17 ft 4 kts 238°
2026-05-08 01:10 26.07202 -80.14664 19 ft 0 kts 281°
2026-05-08 01:14 26.07203 -80.14667 18 ft 2 kts 281°
2026-05-08 01:15 26.07213 -80.14715 16 ft 11 kts 292°
2026-05-08 01:15 26.07234 -80.14757 16 ft 1 kts 301°
2026-05-08 01:15 26.07237 -80.14761 16 ft 0 kts 301°
2026-05-08 01:16 26.07248 -80.14782 16 ft 8 kts 301°
2026-05-08 01:16 26.07290 -80.14848 16 ft 12 kts 321°
2026-05-08 01:16 26.07368 -80.14876 16 ft 12 kts 313°
2026-05-08 01:17 26.07414 -80.14963 16 ft 14 kts 316°
2026-05-08 01:17 26.07484 -80.15041 17 ft 12 kts 302°
2026-05-08 01:17 26.07490 -80.15145 16 ft 17 kts 269°
2026-05-08 01:17 26.07490 -80.15293 16 ft 21 kts 270°
2026-05-08 01:18 26.07491 -80.15460 16 ft 23 kts 270°
2026-05-08 01:18 26.07491 -80.15644 16 ft 21 kts 270°
2026-05-08 01:18 26.07493 -80.15787 16 ft 19 kts 270°
2026-05-08 01:18 26.07493 -80.15930 16 ft 19 kts 270°
2026-05-08 01:19 26.07494 -80.16083 16 ft 21 kts 270°
2026-05-08 01:19 26.07495 -80.16254 16 ft 23 kts 271°
2026-05-08 01:19 26.07496 -80.16405 16 ft 12 kts 270°
2026-05-08 01:19 26.07496 -80.16502 16 ft 13 kts 270°
2026-05-08 01:20 26.07525 -80.16563 16 ft 9 kts 350°
2026-05-08 01:20 26.07591 -80.16561 17 ft 10 kts
2026-05-08 01:20 26.07599 -80.16561 17 ft 0 kts 360°
2026-05-08 01:22 26.07638 -80.16561 18 ft 12 kts 360°
2026-05-08 01:22 26.07694 -80.16538 18 ft 9 kts 77°
2026-05-08 01:22 26.07694 -80.16509 19 ft 0 kts 91°
2026-05-08 01:23 26.07694 -80.16432 20 ft 38 kts 90°
2026-05-08 01:23 26.07692 -80.15875 19 ft 103 kts 90°
2026-05-08 01:23 26.07686 -80.14889 20 ft 150 kts 90°
2026-05-08 01:23 26.07668 -80.13663 378 ft 164 kts 94°
2026-05-08 01:24 26.07646 -80.12400 1024 ft 162 kts 94°
2026-05-08 01:24 26.07637 -80.11108 1387 ft 180 kts 91°
2026-05-08 01:24 26.07893 -80.09669 1649 ft 201 kts 73°
2026-05-08 01:24 26.08425 -80.08142 1873 ft 225 kts 63°
2026-05-08 01:25 26.09467 -80.06726 2199 ft 250 kts 39°
2026-05-08 01:25 26.11045 -80.05770 2743 ft 265 kts 20°
2026-05-08 01:25 26.12811 -80.05117 3585 ft 268 kts 14°
2026-05-08 01:25 26.14627 -80.04632 4499 ft 268 kts
2026-05-08 01:26 26.16456 -80.04891 5361 ft 267 kts 340°
2026-05-08 01:26 26.18189 -80.05655 6174 ft 271 kts 338°
2026-05-08 01:26 26.19975 -80.06406 6857 ft 278 kts 336°
2026-05-08 01:26 26.21648 -80.07519 7551 ft 283 kts 320°
2026-05-08 01:27 26.22951 -80.09157 8282 ft 285 kts 301°
2026-05-08 01:27 26.23789 -80.11167 9013 ft 288 kts 291°
2026-05-08 01:27 26.24526 -80.13253 9721 ft 292 kts 291°
2026-05-08 01:27 26.25277 -80.15408 10306 ft 298 kts 288°
2026-05-08 01:28 26.25757 -80.17708 10459 ft 320 kts 277°
2026-05-08 01:28 26.26106 -80.20261 10711 ft 335 kts 277°
2026-05-08 01:28 26.26458 -80.22847 11257 ft 340 kts 278°
2026-05-08 01:28 26.26819 -80.25454 11904 ft 340 kts 278°
2026-05-08 01:29 26.27185 -80.28060 12528 ft 343 kts 278°
2026-05-08 01:29 26.27559 -80.30691 13137 ft 345 kts 278°
2026-05-08 01:29 26.27937 -80.33339 13739 ft 347 kts 279°
2026-05-08 01:29 26.28317 -80.36006 14280 ft 349 kts 279°
2026-05-08 01:30 26.28698 -80.38687 14823 ft 351 kts 279°
2026-05-08 01:30 26.29083 -80.41379 15375 ft 352 kts 279°
2026-05-08 01:30 26.29469 -80.44082 15930 ft 354 kts 279°
2026-05-08 01:30 26.29853 -80.46796 16487 ft 355 kts 279°
2026-05-08 01:31 26.30237 -80.49518 17052 ft 357 kts 279°
2026-05-08 01:31 26.30623 -80.52259 17606 ft 358 kts 279°
2026-05-08 01:31 26.31010 -80.55012 18154 ft 360 kts 279°
2026-05-08 01:31 26.31397 -80.57775 18645 ft 362 kts 279°
2026-05-08 01:32 26.31786 -80.60550 19120 ft 363 kts 279°
2026-05-08 01:32 26.32177 -80.63337 19607 ft 364 kts 279°
2026-05-08 01:32 26.32568 -80.66134 20098 ft 366 kts 279°
2026-05-08 01:32 26.32959 -80.68941 20584 ft 367 kts 279°
2026-05-08 01:33 26.33350 -80.71757 21057 ft 368 kts 279°
2026-05-08 01:33 26.33744 -80.74583 21528 ft 370 kts 279°
2026-05-08 01:33 26.34139 -80.77424 21989 ft 371 kts 279°
2026-05-08 01:33 26.34537 -80.80266 22448 ft 373 kts 279°
2026-05-08 01:34 26.34936 -80.83128 22908 ft 374 kts 279°
2026-05-08 01:34 26.35334 -80.86001 23356 ft 375 kts 279°
2026-05-08 01:34 26.35762 -80.88880 23760 ft 377 kts 283°
2026-05-08 01:34 26.36600 -80.91652 24099 ft 380 kts 294°
2026-05-08 01:35 26.37953 -80.94192 24434 ft 384 kts 305°
2026-05-08 01:35 26.39773 -80.96398 24762 ft 389 kts 314°
2026-05-08 01:35 26.41756 -80.98470 25102 ft 391 kts 314°
2026-05-08 01:35 26.43749 -81.00555 25443 ft 393 kts 314°
2026-05-08 01:36 26.45746 -81.02648 25778 ft 395 kts 314°
2026-05-08 01:36 26.47754 -81.04759 26116 ft 397 kts 313°
2026-05-08 01:36 26.49772 -81.06882 26454 ft 399 kts 313°
2026-05-08 01:36 26.51799 -81.09015 26780 ft 401 kts 313°
2026-05-08 01:37 26.53834 -81.11161 27108 ft 403 kts 313°
2026-05-08 01:37 26.55885 -81.13324 27427 ft 405 kts 313°
2026-05-08 01:37 26.57937 -81.15488 27744 ft 407 kts 313°
2026-05-08 01:37 26.60003 -81.17666 28081 ft 409 kts 313°
2026-05-08 01:38 26.62077 -81.19853 28428 ft 411 kts 313°
2026-05-08 01:38 26.64157 -81.22052 28771 ft 412 kts 313°
2026-05-08 01:38 26.66271 -81.24297 29108 ft 415 kts 313°
2026-05-08 01:38 26.68361 -81.26520 29440 ft 417 kts 313°
2026-05-08 01:39 26.70470 -81.28762 29773 ft 419 kts 313°
2026-05-08 01:39 26.72585 -81.31014 30095 ft 421 kts 313°
2026-05-08 01:39 26.74709 -81.33277 30366 ft 423 kts 313°
2026-05-08 01:39 26.76846 -81.35555 30642 ft 425 kts 313°
2026-05-08 01:40 26.78992 -81.37842 30919 ft 427 kts 313°
2026-05-08 01:40 26.81139 -81.40128 31297 ft 426 kts 313°
2026-05-08 01:40 26.83283 -81.42408 31698 ft 424 kts 313°
2026-05-08 01:40 26.85420 -81.44684 32093 ft 423 kts 313°
2026-05-08 01:41 26.87550 -81.46959 32498 ft 422 kts 313°
2026-05-08 01:41 26.89672 -81.49229 32903 ft 421 kts 313°
2026-05-08 01:41 26.91794 -81.51497 33334 ft 420 kts 313°
2026-05-08 01:41 26.93902 -81.53749 33773 ft 419 kts 312°
2026-05-08 01:42 26.96013 -81.56005 33999 ft 418 kts 312°
2026-05-08 01:42 27.00186 -81.60464 34044 ft 412 kts 312°
2026-05-08 01:43 27.04314 -81.64892 34035 ft 410 kts 312°
2026-05-08 01:43 27.08432 -81.69325 34044 ft 410 kts 311°
2026-05-08 01:44 27.12551 -81.73756 34047 ft 410 kts 311°
2026-05-08 01:44 27.16668 -81.78186 34045 ft 410 kts 311°
2026-05-08 01:45 27.20794 -81.82624 34059 ft 410 kts 311°
2026-05-08 01:45 27.24913 -81.87060 34073 ft 410 kts 311°
2026-05-08 01:46 27.28295 -81.92067 34067 ft 399 kts 292°
2026-05-08 01:46 27.29879 -81.97976 34061 ft 395 kts 280°
2026-05-08 01:47 27.31004 -82.04018 34054 ft 395 kts 281°
2026-05-08 01:47 27.32138 -82.10072 34054 ft 395 kts 281°
2026-05-08 01:48 27.33836 -82.19153 34060 ft 395 kts 281°
2026-05-08 01:48 27.34960 -82.25207 34057 ft 395 kts 280°
2026-05-08 01:49 27.36084 -82.31261 34058 ft 395 kts 280°
2026-05-08 01:49 27.37205 -82.37311 34057 ft 395 kts 280°
2026-05-08 01:50 27.38326 -82.43396 34067 ft 394 kts 280°
2026-05-08 01:50 27.39432 -82.49430 34069 ft 393 kts 280°
2026-05-08 01:51 27.40539 -82.55456 34071 ft 393 kts 280°
2026-05-08 01:51 27.41652 -82.61475 34068 ft 393 kts 280°
2026-05-08 01:52 27.42783 -82.67489 34056 ft 393 kts 280°
2026-05-08 01:52 27.43909 -82.73505 34068 ft 393 kts 280°
2026-05-08 01:53 27.45030 -82.79519 34069 ft 392 kts 280°
2026-05-08 01:53 27.45955 -82.84514 34070 ft 392 kts 280°
2026-05-08 01:54 27.47068 -82.90520 34073 ft 391 kts 280°
2026-05-08 01:54 27.48176 -82.96518 34063 ft 391 kts 280°
2026-05-08 01:55 27.49280 -83.02509 34068 ft 391 kts 280°
2026-05-08 01:55 27.50381 -83.08499 34068 ft 390 kts 280°
2026-05-08 01:56 27.51476 -83.14490 34060 ft 391 kts 280°
2026-05-08 01:56 27.52565 -83.20483 34078 ft 390 kts 280°
2026-05-08 01:57 27.53659 -83.26472 34070 ft 390 kts 280°
2026-05-08 01:57 27.54748 -83.32457 34067 ft 390 kts 280°
2026-05-08 01:58 27.55840 -83.38481 34069 ft 390 kts 280°
2026-05-08 01:58 27.56922 -83.44463 34073 ft 390 kts 280°
2026-05-08 01:59 27.57997 -83.50446 34065 ft 389 kts 279°
2026-05-08 01:59 27.59076 -83.56426 34076 ft 389 kts 280°
2026-05-08 02:00 27.60151 -83.62405 34077 ft 389 kts 279°
2026-05-08 02:00 27.61220 -83.68379 34072 ft 388 kts 279°
2026-05-08 02:01 27.62288 -83.74358 34071 ft 388 kts 279°
2026-05-08 02:01 27.63354 -83.80322 34070 ft 388 kts 279°
2026-05-08 02:02 27.64415 -83.86287 34076 ft 388 kts 279°
2026-05-08 02:02 27.65472 -83.92259 34065 ft 388 kts 279°
2026-05-08 02:03 27.66524 -83.98228 34071 ft 388 kts 279°
2026-05-08 02:03 27.67579 -84.04209 34077 ft 388 kts 279°
2026-05-08 02:04 27.68633 -84.10184 34070 ft 388 kts 279°
2026-05-08 02:04 27.69681 -84.16164 34073 ft 388 kts 279°
2026-05-08 02:05 27.70721 -84.22143 34071 ft 388 kts 279°
2026-05-08 02:05 27.71763 -84.28128 34065 ft 388 kts 279°
2026-05-08 02:06 27.72799 -84.34108 34069 ft 388 kts 279°
2026-05-08 02:06 27.73837 -84.40100 34064 ft 389 kts 279°
2026-05-08 02:07 27.74881 -84.46090 34074 ft 389 kts 279°
2026-05-08 02:07 27.75911 -84.52086 34059 ft 389 kts 279°
2026-05-08 02:08 27.76939 -84.58085 34072 ft 389 kts 279°
2026-05-08 02:08 27.77967 -84.64077 34064 ft 389 kts 279°
2026-05-08 02:09 27.78996 -84.70072 34072 ft 388 kts 278°
2026-05-08 02:09 27.80016 -84.76049 34069 ft 388 kts 278°
2026-05-08 02:10 27.81030 -84.82025 34072 ft 387 kts 278°
2026-05-08 02:10 27.82046 -84.87999 34065 ft 387 kts 278°
2026-05-08 02:11 27.83061 -84.93969 34071 ft 387 kts 278°
2026-05-08 02:11 27.84074 -84.99932 34065 ft 386 kts 278°
2026-05-08 02:12 27.85070 -85.05900 34070 ft 386 kts 278°
2026-05-08 02:12 27.86067 -85.11862 34073 ft 386 kts 278°
2026-05-08 02:13 27.87071 -85.17834 34061 ft 386 kts 278°
2026-05-08 02:13 27.88079 -85.23799 34056 ft 386 kts 278°
2026-05-08 02:14 27.89574 -85.29652 34059 ft 389 kts 285°
2026-05-08 02:14 27.91345 -85.35469 34049 ft 389 kts 285°
2026-05-08 02:15 27.93085 -85.41220 34050 ft 389 kts 285°
2026-05-08 02:15 27.94841 -85.47041 34047 ft 389 kts 285°
2026-05-08 02:16 27.96593 -85.52831 34043 ft 389 kts 285°
2026-05-08 02:16 27.98343 -85.58628 34044 ft 390 kts 285°
2026-05-08 02:17 28.00088 -85.64436 34066 ft 390 kts 285°
2026-05-08 02:17 28.01829 -85.70244 34066 ft 390 kts 285°
2026-05-08 02:18 28.03563 -85.76058 34064 ft 390 kts 285°
2026-05-08 02:18 28.05302 -85.81869 34063 ft 390 kts 285°
2026-05-08 02:19 28.07041 -85.87678 34061 ft 390 kts 285°
2026-05-08 02:19 28.08774 -85.93488 34059 ft 390 kts 285°
2026-05-08 02:20 28.10509 -85.99312 34060 ft 390 kts 285°
2026-05-08 02:20 28.12236 -86.05121 34061 ft 390 kts 285°
2026-05-08 02:21 28.13961 -86.10952 34058 ft 390 kts 285°
2026-05-08 02:21 28.15684 -86.16771 34059 ft 389 kts 285°
2026-05-08 02:22 28.17403 -86.22588 34060 ft 389 kts 285°
2026-05-08 02:22 28.19120 -86.28410 34056 ft 389 kts 285°
2026-05-08 02:23 28.20843 -86.34229 34049 ft 389 kts 285°
2026-05-08 02:23 28.22552 -86.40056 34049 ft 389 kts 285°
2026-05-08 02:24 28.24260 -86.45887 34053 ft 390 kts 284°
2026-05-08 02:24 28.25967 -86.51723 34056 ft 390 kts 284°
2026-05-08 02:25 28.27670 -86.57568 34058 ft 390 kts 284°
2026-05-08 02:25 28.29374 -86.63412 34056 ft 390 kts 284°
2026-05-08 02:26 28.31087 -86.69263 34052 ft 390 kts 284°
2026-05-08 02:26 28.32801 -86.75110 34051 ft 391 kts 284°
2026-05-08 02:27 28.34241 -86.80020 34069 ft 390 kts 284°
2026-05-08 02:27 28.35950 -86.85865 34068 ft 389 kts 284°
2026-05-08 02:28 28.37652 -86.91701 34065 ft 389 kts 284°
2026-05-08 02:28 28.39353 -86.97526 34076 ft 388 kts 284°
2026-05-08 02:29 28.41045 -87.03345 34067 ft 387 kts 284°
2026-05-08 02:29 28.42738 -87.09155 34064 ft 387 kts 284°
2026-05-08 02:30 28.44423 -87.14960 34064 ft 387 kts 284°
2026-05-08 02:30 28.46094 -87.20768 34061 ft 386 kts 284°
2026-05-08 02:31 28.47768 -87.26571 34057 ft 386 kts 284°
2026-05-08 02:31 28.49436 -87.32365 34055 ft 386 kts 284°
2026-05-08 02:32 28.51106 -87.38162 34057 ft 386 kts 284°
2026-05-08 02:32 28.52774 -87.43959 34054 ft 386 kts 284°
2026-05-08 02:33 28.54437 -87.49753 34054 ft 386 kts 284°
2026-05-08 02:33 28.56095 -87.55557 34054 ft 386 kts 284°
2026-05-08 02:34 28.57755 -87.61360 34054 ft 386 kts 284°
2026-05-08 02:34 28.59410 -87.67166 34054 ft 386 kts 284°
2026-05-08 02:35 28.61067 -87.72975 34053 ft 385 kts 283°
2026-05-08 02:35 28.62721 -87.78776 34052 ft 385 kts 283°
2026-05-08 02:36 28.64369 -87.84577 34050 ft 385 kts 283°
2026-05-08 02:36 28.66001 -87.90381 34071 ft 385 kts 283°
2026-05-08 02:37 28.67631 -87.96177 34068 ft 384 kts 283°
2026-05-08 02:37 28.69266 -88.01961 34065 ft 384 kts 283°
2026-05-08 02:38 28.70911 -88.07745 34058 ft 384 kts 283°
2026-05-08 02:38 28.72538 -88.13531 34062 ft 383 kts 283°
2026-05-08 02:39 28.74154 -88.19317 34059 ft 383 kts 283°
2026-05-08 02:39 28.75778 -88.25107 34058 ft 383 kts 283°
2026-05-08 02:40 28.77401 -88.30882 34060 ft 383 kts 283°
2026-05-08 02:40 28.79026 -88.36705 34057 ft 383 kts 283°
2026-05-08 02:41 28.80638 -88.42491 34056 ft 383 kts 283°
2026-05-08 02:41 28.82239 -88.48282 34056 ft 383 kts 283°
2026-05-08 02:42 28.83841 -88.54076 34055 ft 383 kts 283°
2026-05-08 02:42 28.85446 -88.59875 34039 ft 384 kts 283°
2026-05-08 02:43 28.87064 -88.65720 34011 ft 388 kts 283°
2026-05-08 02:43 28.89271 -88.71403 34007 ft 403 kts 300°
2026-05-08 02:44 28.92945 -88.76348 34012 ft 410 kts 303°
2026-05-08 02:44 28.96684 -88.81282 34051 ft 411 kts 303°
2026-05-08 02:45 29.00411 -88.86233 34069 ft 411 kts 303°
2026-05-08 02:45 29.04130 -88.91176 34060 ft 410 kts 303°
2026-05-08 02:46 29.07848 -88.96129 34056 ft 410 kts 303°
2026-05-08 02:46 29.11550 -89.01079 34058 ft 409 kts 303°
2026-05-08 02:47 29.15251 -89.06028 34058 ft 409 kts 303°
2026-05-08 02:47 29.18964 -89.10975 34056 ft 409 kts 303°
2026-05-08 02:48 29.22674 -89.15914 34055 ft 409 kts 303°
2026-05-08 02:48 29.26362 -89.20859 34074 ft 408 kts 302°
2026-05-08 02:49 29.30038 -89.25813 34066 ft 408 kts 302°
2026-05-08 02:49 29.33716 -89.30761 34060 ft 408 kts 302°
2026-05-08 02:50 29.37395 -89.35708 34062 ft 408 kts 302°
2026-05-08 02:50 29.41078 -89.40660 34055 ft 408 kts 302°
2026-05-08 02:51 29.44758 -89.45609 34049 ft 408 kts 302°
2026-05-08 02:51 29.48430 -89.50575 34051 ft 407 kts 302°
2026-05-08 02:52 29.52100 -89.55543 34043 ft 408 kts 302°
2026-05-08 02:52 29.55770 -89.60494 34066 ft 407 kts 302°
2026-05-08 02:53 29.59437 -89.65456 34051 ft 406 kts 302°
2026-05-08 02:53 29.63090 -89.70409 34039 ft 406 kts 302°
2026-05-08 02:54 29.66755 -89.75393 34037 ft 406 kts 302°
2026-05-08 02:54 29.70396 -89.80352 34035 ft 406 kts 302°
2026-05-08 02:55 29.75862 -89.87793 34029 ft 406 kts 302°
2026-05-08 02:56 29.79505 -89.92755 34033 ft 406 kts 302°
2026-05-08 02:56 29.83144 -89.97724 34057 ft 405 kts 302°
2026-05-08 02:56 29.85094 -90.00072 33997 ft 410 kts 315°
2026-05-08 02:57 29.87568 -90.01708 34043 ft 407 kts 323°
2026-05-08 02:57 29.90109 -90.03047 34043 ft 396 kts 326°
2026-05-08 02:57 29.92559 -90.04278 34040 ft 375 kts 319°
2026-05-08 02:57 29.94433 -90.06122 34043 ft 333 kts 296°
2026-05-08 02:58 29.95497 -90.08389 34043 ft 314 kts 283°
2026-05-08 02:58 29.96517 -90.13202 34041 ft 307 kts 276°
2026-05-08 02:59 29.97347 -90.18043 34037 ft 308 kts 277°
2026-05-08 02:59 29.98186 -90.22044 34036 ft 309 kts 279°
2026-05-08 03:00 29.99334 -90.26828 34032 ft 310 kts 282°
2026-05-08 03:00 30.00718 -90.31557 34036 ft 312 kts 283°
2026-05-08 03:01 30.02157 -90.36278 34039 ft 311 kts 283°
2026-05-08 03:01 30.03560 -90.41005 34035 ft 311 kts 282°
2026-05-08 03:02 30.04945 -90.45735 34052 ft 311 kts 282°
2026-05-08 03:02 30.06322 -90.50469 34054 ft 311 kts 282°
2026-05-08 03:03 30.07696 -90.55205 34054 ft 311 kts 282°
2026-05-08 03:03 30.08899 -90.59974 34053 ft 306 kts 274°
2026-05-08 03:04 30.09132 -90.64847 34054 ft 303 kts 267°
2026-05-08 03:04 30.09003 -90.69703 34054 ft 301 kts 257°
2026-05-08 03:04 30.08232 -90.71943 34053 ft 303 kts 240°
2026-05-08 03:05 30.06797 -90.73761 34049 ft 314 kts 223°
2026-05-08 03:05 30.04780 -90.74885 34050 ft 335 kts 202°
2026-05-08 03:05 30.02373 -90.74968 34048 ft 365 kts 178°
2026-05-08 03:05 29.99948 -90.73771 34052 ft 398 kts 153°
2026-05-08 03:06 29.97980 -90.71387 34049 ft 426 kts 128°
2026-05-08 03:06 29.96862 -90.68148 34049 ft 445 kts 103°
2026-05-08 03:06 29.96830 -90.64558 34051 ft 453 kts 78°
2026-05-08 03:06 29.97910 -90.61178 34055 ft 448 kts 52°
2026-05-08 03:07 29.99918 -90.58532 34065 ft 432 kts 27°
2026-05-08 03:07 30.02495 -90.57007 34062 ft 405 kts
2026-05-08 03:07 30.05204 -90.56628 34064 ft 389 kts 351°
2026-05-08 03:07 30.07929 -90.56099 34053 ft 412 kts 12°
2026-05-08 03:08 30.10449 -90.54356 34059 ft 436 kts 37°
2026-05-08 03:08 30.12331 -90.51548 34079 ft 450 kts 62°
2026-05-08 03:08 30.13241 -90.48055 34055 ft 451 kts 88°
2026-05-08 03:08 30.13008 -90.44482 34066 ft 442 kts 113°
2026-05-08 03:09 30.11720 -90.41370 34068 ft 421 kts 138°
2026-05-08 03:09 30.09642 -90.39189 34031 ft 391 kts 163°
2026-05-08 03:09 30.07190 -90.38233 34046 ft 358 kts 189°
2026-05-08 03:09 30.04817 -90.38473 34049 ft 335 kts 206°
2026-05-08 03:10 30.02643 -90.39327 34046 ft 327 kts 214°
2026-05-08 03:10 29.98758 -90.41873 34044 ft 317 kts 224°
2026-05-08 03:11 29.95483 -90.45170 34041 ft 312 kts 229°
2026-05-08 03:11 29.93718 -90.46677 34055 ft 322 kts 218°
2026-05-08 03:11 29.91696 -90.47840 34053 ft 326 kts 215°
2026-05-08 03:12 29.88063 -90.50698 34053 ft 309 kts 234°
2026-05-08 03:12 29.86831 -90.52684 34052 ft 303 kts 245°
2026-05-08 03:12 29.86006 -90.54898 34051 ft 300 kts 254°
2026-05-08 03:12 29.85546 -90.57239 34051 ft 300 kts 262°
2026-05-08 03:13 29.85377 -90.59638 34054 ft 301 kts 266°
2026-05-08 03:13 29.85433 -90.64472 34049 ft 302 kts 269°
2026-05-08 03:14 29.85769 -90.69304 34048 ft 305 kts 277°
2026-05-08 03:14 29.87312 -90.73929 34047 ft 317 kts 294°
2026-05-08 03:15 29.90341 -90.77801 34047 ft 339 kts 314°
2026-05-08 03:15 29.92403 -90.79216 34049 ft 353 kts 324°
2026-05-08 03:15 29.94778 -90.80145 34048 ft 369 kts 337°
2026-05-08 03:15 29.97379 -90.80459 34050 ft 386 kts 350°
2026-05-08 03:16 30.00110 -90.80056 34054 ft 405 kts
2026-05-08 03:16 30.02790 -90.78865 34054 ft 422 kts 20°
2026-05-08 03:16 30.05217 -90.76870 34057 ft 438 kts 38°
2026-05-08 03:16 30.07178 -90.74127 34057 ft 450 kts 56°
2026-05-08 03:17 30.08466 -90.70821 34062 ft 455 kts 75°
2026-05-08 03:17 30.08968 -90.67223 34069 ft 455 kts 88°
2026-05-08 03:17 30.09078 -90.63573 34062 ft 455 kts 92°
2026-05-08 03:18 30.08649 -90.56325 34053 ft 446 kts 112°
2026-05-08 03:18 30.07486 -90.53082 34064 ft 433 kts 129°
2026-05-08 03:18 30.05764 -90.50301 34063 ft 419 kts 143°
2026-05-08 03:18 30.03648 -90.48091 34062 ft 402 kts 157°
2026-05-08 03:19 30.01261 -90.46565 34061 ft 384 kts 171°
2026-05-08 03:19 29.98757 -90.45762 34058 ft 365 kts 184°
2026-05-08 03:19 29.96279 -90.45629 34057 ft 349 kts 196°
2026-05-08 03:19 29.93931 -90.46073 34044 ft 336 kts 207°
2026-05-08 03:20 29.91785 -90.47006 34043 ft 325 kts 217°
2026-05-08 03:20 29.88284 -90.50016 34053 ft 308 kts 234°